Terminal Aerodrome Forecast
Issued by NWS

Home | Current Version | Previous Version | Graphics & Text | Print | Product List | Glossary On
Versions: 1 2 3 4 5 6 7 8 9 10 11 12 13 14
000
FTUS43 KOAX 170520
TAFCDR
TAF
KCDR 170520Z 1706/1806 17025G35KT P6SM BKN250
     FM171600 21018G28KT P6SM BKN100 BKN250
     FM172100 28025G35KT P6SM BKN050 OVC100
     FM180100 30018G28KT P6SM VCSH SCT020 BKN050=

USA.gov is the U.S. government's official web portal to all federal, state and local government web resources and services.